Location: Chandler
(33.3060°N, 111.8410°W)
Time: 13:57:35
(UTC-07:00)

Amateur Radio Satellites - All Passes

Search period start: 19 April 2014 13:27
Search period end: 20 April 2014 13:27
Location: Chandler, 33.3060°N, 111.8410°W

Satellite Date Start Highest point End Downlink Frequencies (MHz)
Time Altitude Azimuth
Uribyol 2 19 Apr 13:34:56 13:40:01 62° 74° (ENE) 13:45:06 436.500 FM
SO-50 19 Apr 13:48:12 13:50:00 12° 108° (ESE) 13:51:48 436.795 FM
AO-7 19 Apr 13:59:36 14:00:20 10° 50° (NE) 14:01:03 29.400 - 29.500 MHz
Gurwin Techsat 1B 19 Apr 14:08:06 14:12:53 35° 71° (ENE) 14:17:40 435.225 FM
OPAL 19 Apr 14:09:25 14:12:46 17° 96° (E) 14:16:05 ?
JAS-1B 19 Apr 14:11:14 14:16:45 21° 66° (ENE) 14:21:40 435.800 - 435.900 CW/SSB
AO-27 19 Apr 14:15:12 14:20:16 53° 259° (W) 14:25:21 436.795 MHz FM
ISS 19 Apr 14:17:58 14:21:15 62° 134° (SE) 14:24:33 145.800 FM
RS-15 19 Apr 14:19:35 14:28:37 28° 43° (NE) 14:37:45 29.354 - 29.394 USB, Beacon 29.352 USB
ITAMSAT 1 19 Apr 14:26:07 14:31:00 42° 261° (W) 14:35:55 435.822 SSB
AO-Echo 19 Apr 14:32:20 14:37:23 46° 260° (W) 14:42:21 ?
Oscar 19 19 Apr 14:32:25 14:35:58 19° 266° (W) 14:39:33 437.125 CW, 437.150 USB
Oscar 16 19 Apr 14:41:45 14:44:23 14° 267° (W) 14:47:01 437.025 USB, Beacon 2401.1428
Uosat F 19 Apr 14:52:05 14:55:59 23° 68° (ENE) 14:59:53 435.120 FM
TMSAT-1 19 Apr 14:55:42 15:00:58 75° 75° (ENE) 15:06:15 436.925 FM
Uribyol 2 19 Apr 15:17:49 15:19:49 12° 268° (W) 15:21:49 436.500 FM
SO-50 19 Apr 15:25:42 15:30:04 52° 301° (WNW) 15:34:27 436.795 FM
AO-7 19 Apr 15:43:20 15:51:25 61° 69° (ENE) 15:59:31 29.400 - 29.500 MHz
OPAL 19 Apr 15:46:49 15:51:49 47° 289° (WNW) 15:56:47 ?
Gurwin Techsat 1B 19 Apr 15:48:44 15:52:52 23° 265° (W) 15:57:01 435.225 FM
ISS 19 Apr 15:56:25 15:58:16 14° 330° (NNW) 16:00:08 145.800 FM
JAS-1B 19 Apr 15:58:27 16:06:56 68° 257° (WSW) 16:14:01 435.800 - 435.900 CW/SSB
UOSAT-12 19 Apr 16:09:07 16:12:21 20° 109° (ESE) 16:15:38 437.025 FM, 437.400 FM
Uosat F 19 Apr 16:30:03 16:34:33 33° 262° (W) 16:39:04 435.120 FM
RS-15 19 Apr 16:31:05 16:42:03 78° 245° (WSW) 16:53:23 29.354 - 29.394 USB, Beacon 29.352 USB
JAS-2 19 Apr 17:28:29 17:31:11 14° 66° (ENE) 17:33:48 435.800 - 435.900 CW/SSB, 435.910 FM
Hamsat 19 Apr 17:33:00 17:36:51 37° 73° (ENE) 17:40:45 145.90 MHz
AO-7 19 Apr 17:38:09 17:44:32 25° 264° (W) 17:50:58 29.400 - 29.500 MHz
UOSAT-12 19 Apr 17:48:03 17:52:12 35° 304° (NW) 17:56:28 437.025 FM, 437.400 FM
STRAND 1 19 Apr 18:25:30 18:29:52 28° 97° (E) 18:34:13 ?
RS-15 19 Apr 18:48:03 18:52:39 13° 261° (W) 18:57:20 29.354 - 29.394 USB, Beacon 29.352 USB
SO-67 19 Apr 18:49:16 18:52:38 49° 76° (ENE) 18:56:02 435.3500 MHz FM
AO-40 19 Apr 19:00:07 19:08:16 15° 201° (SSW) 19:12:44 Beacon 2401.320
JAS-2 19 Apr 19:09:50 19:15:52 66° 258° (WSW) 19:21:17 435.800 - 435.900 CW/SSB, 435.910 FM
Hamsat 19 Apr 19:10:51 19:12:58 14° 267° (W) 19:15:06 145.90 MHz
Saudisat 1A 19 Apr 19:38:27 19:42:41 44° 58° (ENE) 19:46:50 436.775 MHz
HO-68 19 Apr 19:54:16 20:00:21 32° 65° (ENE) 20:06:28 435.675 MHz FM
STRAND 1 19 Apr 20:04:42 20:08:55 27° 291° (WNW) 20:13:08 ?
Oscar 11 19 Apr 20:45:55 20:49:15 22° 70° (ENE) 20:52:35 145.825 FM, Beacon 2401.500 USB
MaSat-1 19 Apr 20:47:57 20:51:04 55° 111° (ESE) 20:53:46 437.345 MHz
ISS 19 Apr 20:51:08 20:53:00 14° 31° (NNE) 20:54:51 145.800 FM
Saudisat 1A 19 Apr 21:19:34 21:21:51 14° 252° (WSW) 21:24:08 436.775 MHz
HO-68 19 Apr 21:41:09 21:47:48 42° 260° (W) 21:54:29 435.675 MHz FM
FUNcube-1 19 Apr 22:12:17 22:16:29 70° 76° (ENE) 22:20:39 145.950 - 145.970 MHz USB
Oscar 11 19 Apr 22:21:46 22:25:17 25° 264° (W) 22:28:50 145.825 FM, Beacon 2401.500 USB
ISS 19 Apr 22:26:42 22:30:01 62° 226° (SW) 22:33:19 145.800 FM
Sapphire 19 Apr 23:01:55 23:05:50 21° 106° (ESE) 23:09:46 437.095 MHz 1200 baud AX-25 AFSK
PCSat 19 Apr 23:45:07 23:50:24 60° 112° (ESE) 23:55:44 145.825 MHz
SO-50 20 Apr 00:01:10 00:05:37 43° 58° (ENE) 00:10:07 436.795 FM
Sapphire 20 Apr 00:43:47 00:48:54 42° 300° (WNW) 00:54:02 437.095 MHz 1200 baud AX-25 AFSK
Oscar 19 20 Apr 01:08:18 01:12:08 21° 95° (E) 01:15:57 437.125 CW, 437.150 USB
KITSAT 1 20 Apr 01:13:53 01:20:38 30° 106° (ESE) 01:27:23 435.175 FM
Oscar 16 20 Apr 01:16:13 01:20:36 27° 97° (E) 01:24:57 437.025 USB, Beacon 2401.1428
OPAL 20 Apr 01:20:35 01:24:06 19° 65° (ENE) 01:27:39 ?
PCSat 20 Apr 01:30:46 01:34:13 17° 308° (NW) 01:37:40 145.825 MHz
SO-50 20 Apr 01:42:52 01:45:50 17° 251° (WSW) 01:48:49 436.795 FM
Uribyol 2 20 Apr 01:52:19 01:56:53 31° 98° (E) 02:01:25 436.500 FM
UOSAT-12 20 Apr 02:21:06 02:25:47 62° 60° (ENE) 02:30:24 437.025 FM, 437.400 FM
Gurwin Techsat 1B 20 Apr 02:29:13 02:33:02 20° 95° (E) 02:36:50 435.225 FM
AO-27 20 Apr 02:32:22 02:37:33 78° 103° (ESE) 02:42:44 436.795 MHz FM
ITAMSAT 1 20 Apr 02:42:55 02:48:06 84° 284° (WNW) 02:53:17 435.822 SSB
AO-Echo 20 Apr 02:43:57 02:48:43 82° 102° (ESE) 02:53:24 ?
Oscar 19 20 Apr 02:46:45 02:51:32 38° 289° (WNW) 02:56:17 437.125 CW, 437.150 USB
Oscar 16 20 Apr 02:55:24 02:59:51 29° 290° (WNW) 03:04:17 437.025 USB, Beacon 2401.1428
OPAL 20 Apr 02:57:56 03:02:38 41° 259° (W) 03:07:25 ?
KITSAT 1 20 Apr 03:07:45 03:15:35 52° 302° (WNW) 03:23:29 435.175 FM
TMSAT-1 20 Apr 03:16:03 03:21:03 42° 99° (E) 03:26:02 436.925 FM
Uribyol 2 20 Apr 03:31:58 03:36:11 26° 291° (WNW) 03:40:23 436.500 FM
JAS-1B 20 Apr 03:48:31 03:53:48 38° 100° (E) 03:59:25 435.800 - 435.900 CW/SSB
AO-7 20 Apr 03:50:37 03:57:10 25° 97° (E) 04:03:40 29.400 - 29.500 MHz
UOSAT-12 20 Apr 04:03:56 04:05:21 11° 253° (WSW) 04:06:46 437.025 FM, 437.400 FM
Gurwin Techsat 1B 20 Apr 04:08:09 04:13:06 41° 288° (WNW) 04:18:01 435.225 FM
AO-27 20 Apr 04:15:23 04:16:21 11° 297° (WNW) 04:17:19 436.795 MHz FM
RS-15 20 Apr 04:40:23 04:48:28 23° 103° (ESE) 04:56:18 29.354 - 29.394 USB, Beacon 29.352 USB
Uosat F 20 Apr 04:41:24 04:46:24 77° 285° (WNW) 04:51:22 435.120 FM
TMSAT-1 20 Apr 04:56:52 05:00:38 20° 293° (WNW) 05:04:24 436.925 FM
KITSAT 1 20 Apr 05:11:07 05:13:04 11° 324° (NW) 05:15:01 435.175 FM
STRAND 1 20 Apr 05:37:38 05:41:55 28° 69° (ENE) 05:46:12 ?
JAS-1B 20 Apr 05:40:01 05:44:16 22° 293° (WNW) 05:48:41 435.800 - 435.900 CW/SSB
AO-7 20 Apr 05:42:08 05:50:15 60° 291° (WNW) 05:58:23 29.400 - 29.500 MHz
JAS-2 20 Apr 06:23:35 06:27:14 17° 96° (E) 06:31:06 435.800 - 435.900 CW/SSB, 435.910 FM
PANSAT 20 Apr 06:45:48 06:48:00 15° 159° (SSE) 06:50:11 not established
RS-15 20 Apr 06:48:11 06:59:38 78° 299° (WNW) 07:10:41 29.354 - 29.394 USB, Beacon 29.352 USB
MaSat-1 20 Apr 06:52:38 06:55:47 70° 68° (ENE) 06:59:35 437.345 MHz
Hamsat 20 Apr 06:58:28 07:02:45 57° 284° (WNW) 07:07:01 145.90 MHz
STRAND 1 20 Apr 07:16:39 07:20:59 28° 263° (W) 07:25:20 ?
AO-7 20 Apr 07:40:57 07:41:19 10° 310° (NW) 07:41:41 29.400 - 29.500 MHz
SO-67 20 Apr 07:50:46 07:54:15 68° 283° (WNW) 07:57:43 435.3500 MHz FM
JAS-2 20 Apr 08:07:07 08:12:25 51° 286° (WNW) 08:18:19 435.800 - 435.900 CW/SSB, 435.910 FM
PANSAT 20 Apr 08:24:15 08:27:45 32° 170° (S) 08:31:14 not established
PCSat 20 Apr 08:38:04 08:42:08 21° 54° (NE) 08:46:11 145.825 MHz
RS-15 20 Apr 09:06:06 09:13:58 21° 323° (NW) 09:21:46 29.354 - 29.394 USB, Beacon 29.352 USB
HO-68 20 Apr 09:12:54 09:19:48 48° 101° (E) 09:26:40 435.675 MHz FM
Sapphire 20 Apr 09:35:36 09:40:59 63° 63° (ENE) 09:46:19 437.095 MHz 1200 baud AX-25 AFSK
Saudisat 1A 20 Apr 09:41:21 09:45:16 31° 112° (ESE) 09:49:13 436.775 MHz
PANSAT 20 Apr 10:04:02 10:07:40 39° 183° (S) 10:11:18 not established
FUNcube-1 20 Apr 10:06:29 10:09:30 18° 95° (E) 10:12:33 145.950 - 145.970 MHz USB
Oscar 11 20 Apr 10:12:39 10:17:01 81° 102° (ESE) 10:21:22 145.825 FM, Beacon 2401.500 USB
PCSat 20 Apr 10:20:35 10:25:45 46° 250° (WSW) 10:30:52 145.825 MHz
HO-68 20 Apr 11:01:16 11:07:07 28° 296° (WNW) 11:12:58 435.675 MHz FM
KITSAT 1 20 Apr 11:05:37 11:13:07 39° 55° (NE) 11:20:31 435.175 FM
Sapphire 20 Apr 11:21:14 11:23:47 14° 257° (WSW) 11:26:20 437.095 MHz 1200 baud AX-25 AFSK
Saudisat 1A 20 Apr 11:21:22 11:24:53 22° 307° (NW) 11:28:24 436.775 MHz
FUNcube-1 20 Apr 11:42:11 11:45:54 29° 288° (WNW) 11:49:41 145.950 - 145.970 MHz USB
PANSAT 20 Apr 11:44:23 11:47:32 24° 195° (SSW) 11:50:41 not established
Oscar 19 20 Apr 12:21:35 12:25:16 20° 67° (ENE) 12:28:57 437.125 CW, 437.150 USB
Oscar 16 20 Apr 12:29:27 12:33:39 26° 69° (ENE) 12:37:52 437.025 USB, Beacon 2401.1428
KITSAT 1 20 Apr 13:01:02 13:08:25 41° 252° (WSW) 13:15:47 435.175 FM
Uribyol 2 20 Apr 13:06:22 13:10:51 31° 70° (ENE) 13:15:20 436.500 FM
